Location: Maiden
(35.5760°N, 81.2120°W)
Time: 01:32:19
(UTC-04:00)

A-11 Canister half - Pass Details

Date: 06 August 2020
Orbit: 1527 x 1682 km, 47.3° (Epoch: 25 September)

Event Time Altitude Azimuth Distance (km) Brightness Sun altitude
Rises 14:05:02 0° 237° (WSW) 4,903 11.9 69.4°
Reaches altitude 10° 14:08:11 10° 239° (WSW) 3,926 11.6 69.1°
Maximum altitude 14:18:21 81° 326° (NNW) 1,700 10.7 68.1°
Drops below altitude 10° 14:28:31 10° 55° (NE) 3,923 11.0 66.9°
Sets 14:31:40 0° 57° (ENE) 4,899 11.4 66.5°
